Back to catalog

SCOUT G-1 DEB

AlivePO
NORAD 28672·DEBRIS·🇺🇸 United States

Launched Aug 25, 1988 from Vandenberg Space Force Base

Loading…

Next Passes (next 24 hours)

TLE

AgingSource: Space-Track

Epoch: Sep 9, 2026, 14:53 UTC

1 28672U 88074H   26252.62025240  .00000955  00000-0  12392-2 0  9998
2 28672  90.0062   9.8959 0086115  81.0873 295.2104 13.59844687642888

Track SCOUT G-1 DEB in real time with AllMySat

Download on the App Store